,,,PA_Meas_PMT16A,,PR_Meas_QMR101_102,,RH_Meas_QMH101,,SR_Meas_QMS101,,TA_Meas_QMH101,,GenWind,,GenWind,
date,time,status,PA,status,PR,status,RH,status,SR,status,TA,status,DirAvg,status,SpdAvg,
2011-07-06, 00:00:04,VALID,1005.97,VALID,0,INVALID,163.723,VALID,0,VALID,24.1494,VALID,25,VALID,0,
2011-07-06, 00:01:04,VALID,1005.94,VALID,0,INVALID,163.723,VALID,0,VALID,24.1707,VALID,25,VALID,0,
2011-07-06, 00:02:04,VALID,1005.92,VALID,0,INVALID,163.762,VALID,0,VALID,24.1494,VALID,25,VALID,0,
2011-07-06, 00:03:04,VALID,1005.91,VALID,0,INVALID,163.746,VALID,0,VALID,24.1513,VALID,24,VALID,0,
2011-07-06, 00:04:04,VALID,1005.87,VALID,0,INVALID,163.746,VALID,0,VALID,24.13,VALID,24,VALID,0,
2011-07-06, 00:05:04,VALID,1005.86,VALID,0,INVALID,163.739,VALID,0,VALID,24.13,VALID,24,VALID,0,
2011-07-06, 00:06:04,VALID,1005.88,VALID,0,INVALID,163.754,VALID,0,VALID,24.1494,VALID,24,VALID,0,
2011-07-06, 00:07:04,VALID,1005.82,VALID,0,INVALID,163.731,VALID,0,VALID,24.1689,VALID,24,VALID,0,
2011-07-06, 00:08:04,VALID,1005.83,VALID,0,INVALID,163.754,VALID,0,VALID,24.2097,VALID,23,VALID,0,
2011-07-06, 00:09:04,VALID,1005.82,VALID,0,INVALID,163.754,VALID,0,VALID,24.1884,VALID,23,VALID,0,
2011-07-06, 00:10:04,VALID,1005.8,VALID,0,INVALID,163.739,VALID,0,VALID,24.1707,VALID,23,VALID,0,
2011-07-06, 00:11:04,VALID,1005.77,VALID,0,INVALID,163.731,VALID,0,VALID,24.13,VALID,19,VALID,0,
2011-07-06, 00:12:04,VALID,1005.76,VALID,0,INVALID,163.739,VALID,0,VALID,24.1105,VALID,14,VALID,0,
2011-07-06, 00:13:04,VALID,1005.73,VALID,0,INVALID,163.8,VALID,0,VALID,24.1123,VALID,357,VALID,0,
2011-07-06, 00:14:04,VALID,1005.67,VALID,0,INVALID,163.739,VALID,0,VALID,24.091,VALID,355,VALID,0,
2011-07-06, 00:15:04,VALID,1005.64,VALID,0,INVALID,163.754,VALID,0,VALID,24.0716,VALID,350,VALID,0,
2011-07-06, 00:16:04,VALID,1005.64,VALID,0,INVALID,163.746,VALID,0,VALID,24.0929,VALID,350,VALID,0,
2011-07-06, 00:17:04,VALID,1005.61,VALID,0,INVALID,163.754,VALID,0,VALID,24.0521,VALID,350,VALID,0,
2011-07-06, 00:18:04,VALID,1005.55,VALID,0,INVALID,163.754,VALID,0,VALID,24.0326,VALID,350,VALID,0,
2011-07-06, 00:19:04,VALID,1005.52,VALID,0,INVALID,163.746,VALID,0,VALID,24.0345,VALID,356,VALID,0,
2011-07-06, 00:20:04,VALID,1005.53,VALID,0,INVALID,163.746,VALID,0,VALID,24.015,VALID,356,VALID,0,
2011-07-06, 00:21:04,VALID,1005.5,VALID,0,INVALID,163.746,VALID,0,VALID,23.9742,VALID,356,VALID,0,
2011-07-06, 00:22:04,VALID,1005.52,VALID,0,INVALID,163.769,VALID,0,VALID,23.9353,VALID,356,VALID,0,
2011-07-06, 00:23:04,VALID,1005.53,VALID,0,INVALID,163.777,VALID,0,VALID,23.9159,VALID,356,VALID,0,
2011-07-06, 00:24:04,VALID,1005.53,VALID,0,INVALID,163.762,VALID,0,VALID,23.8964,VALID,356,VALID,0,
2011-07-06, 00:25:04,VALID,1005.55,VALID,0,INVALID,163.777,VALID,0,VALID,23.8769,VALID,356,VALID,0,
2011-07-06, 00:26:04,VALID,1005.54,VALID,0,INVALID,163.777,VALID,0,VALID,23.8787,VALID,356,VALID,0,
2011-07-06, 00:27:04,VALID,1005.55,VALID,0,INVALID,163.762,VALID,0,VALID,23.8575,VALID,356,VALID,0,
2011-07-06, 00:28:04,VALID,1005.54,VALID,0,INVALID,163.769,VALID,0,VALID,23.838,VALID,356,VALID,0,
2011-07-06, 00:29:04,VALID,1005.55,VALID,0,INVALID,163.754,VALID,0,VALID,23.8185,VALID,356,VALID,0,
2011-07-06, 00:30:04,VALID,1005.55,VALID,0,INVALID,163.8,VALID,0,VALID,23.8185,VALID,356,VALID,0,
2011-07-06, 00:31:04,VALID,1005.54,VALID,0,INVALID,163.8,VALID,0,VALID,23.8203,VALID,356,VALID,0,
2011-07-06, 00:32:04,VALID,1005.53,VALID,0,INVALID,163.762,VALID,0,VALID,23.7991,VALID,356,VALID,0,
2011-07-06, 00:33:04,VALID,1005.52,VALID,0,INVALID,163.762,VALID,0,VALID,23.7991,VALID,356,VALID,0,
2011-07-06, 00:34:04,VALID,1005.52,VALID,0,INVALID,163.815,VALID,0,VALID,23.7796,VALID,356,VALID,0,
2011-07-06, 00:35:04,VALID,1005.52,VALID,0,INVALID,163.784,VALID,0,VALID,23.8009,VALID,356,VALID,0,
2011-07-06, 00:36:04,VALID,1005.49,VALID,0,INVALID,163.777,VALID,0,VALID,23.7583,VALID,22,VALID,0,
2011-07-06, 00:37:04,VALID,1005.5,VALID,0,INVALID,163.762,VALID,0,VALID,23.8185,VALID,40,VALID,0,
2011-07-06, 00:38:04,VALID,1005.52,VALID,0,INVALID,163.8,VALID,0,VALID,23.838,VALID,40,VALID,0,
2011-07-06, 00:39:04,VALID,1005.51,VALID,0,INVALID,163.784,VALID,0,VALID,23.838,VALID,39,VALID,0,
2011-07-06, 00:40:04,VALID,1005.52,VALID,0,INVALID,163.769,VALID,0,VALID,23.8185,VALID,39,VALID,0,
2011-07-06, 00:41:04,VALID,1005.52,VALID,0,INVALID,163.739,VALID,0,VALID,23.7973,VALID,39,VALID,0,
2011-07-06, 00:42:04,VALID,1005.53,VALID,0,INVALID,163.769,VALID,0,VALID,23.7973,VALID,32,VALID,0,
2011-07-06, 00:43:04,VALID,1005.55,VALID,0,INVALID,163.762,VALID,0,VALID,23.7991,VALID,31,VALID,0,
2011-07-06, 00:44:04,VALID,1005.53,VALID,0,INVALID,163.777,VALID,0,VALID,23.7991,VALID,31,VALID,0,
2011-07-06, 00:45:04,VALID,1005.51,VALID,0,INVALID,163.754,VALID,0,VALID,23.7991,VALID,31,VALID,0,
2011-07-06, 00:46:04,VALID,1005.51,VALID,0,INVALID,163.769,VALID,0,VALID,23.8203,VALID,31,VALID,0,
2011-07-06, 00:47:04,VALID,1005.5,VALID,0,INVALID,163.777,VALID,0,VALID,23.8185,VALID,31,VALID,0,
2011-07-06, 00:48:04,VALID,1005.52,VALID,0,INVALID,163.807,VALID,0,VALID,23.8203,VALID,31,VALID,0,
2011-07-06, 00:49:04,VALID,1005.52,VALID,0,INVALID,163.777,VALID,0,VALID,23.8203,VALID,31,VALID,0,
2011-07-06, 00:50:04,VALID,1005.51,VALID,0,INVALID,163.762,VALID,0,VALID,23.7991,VALID,31,VALID,0,
2011-07-06, 00:51:04,VALID,1005.51,VALID,0,INVALID,163.784,VALID,0,VALID,23.8398,VALID,31,VALID,0,
2011-07-06, 00:52:04,VALID,1005.52,VALID,0,INVALID,163.807,VALID,0,VALID,23.8185,VALID,31,VALID,0,
2011-07-06, 00:53:04,VALID,1005.52,VALID,0,INVALID,163.784,VALID,0,VALID,23.838,VALID,31,VALID,0,
2011-07-06, 00:54:04,VALID,1005.51,VALID,0,INVALID,163.754,VALID,0,VALID,23.8593,VALID,31,VALID,0,
2011-07-06, 00:55:04,VALID,1005.5,VALID,0,INVALID,163.792,VALID,0,VALID,23.838,VALID,31,VALID,0,
2011-07-06, 00:56:04,VALID,1005.48,VALID,0,INVALID,163.769,VALID,0,VALID,23.8575,VALID,31,VALID,0,
2011-07-06, 00:57:04,VALID,1005.5,VALID,0,INVALID,163.746,VALID,0,VALID,23.8575,VALID,31,VALID,0,
2011-07-06, 00:58:04,VALID,1005.46,VALID,0,INVALID,163.769,VALID,0,VALID,23.8575,VALID,31,VALID,0,
2011-07-06, 00:59:04,VALID,1005.43,VALID,0,INVALID,163.746,VALID,0,VALID,23.8769,VALID,31,VALID,0,
2011-07-06, 01:00:04,VALID,1005.44,VALID,0,INVALID,163.769,VALID,0,VALID,23.8787,VALID,31,VALID,0,
2011-07-06, 01:01:04,VALID,1005.45,VALID,0,INVALID,163.762,VALID,0,VALID,23.8769,VALID,31,VALID,0,
2011-07-06, 01:02:04,VALID,1005.43,VALID,0,INVALID,163.754,VALID,0,VALID,23.8575,VALID,31,VALID,0,
2011-07-06, 01:03:04,VALID,1005.39,VALID,0,INVALID,163.777,VALID,0,VALID,23.8769,VALID,31,VALID,0,
2011-07-06, 01:04:04,VALID,1005.37,VALID,0,INVALID,163.769,VALID,0,VALID,23.8769,VALID,31,VALID,0,
2011-07-06, 01:05:04,VALID,1005.38,VALID,0,INVALID,163.792,VALID,0,VALID,23.8575,VALID,31,VALID,0,
2011-07-06, 01:06:04,VALID,1005.34,VALID,0,INVALID,163.777,VALID,0,VALID,23.8575,VALID,31,VALID,0,
2011-07-06, 01:07:04,VALID,1005.33,VALID,0,INVALID,163.792,VALID,0,VALID,23.8575,VALID,31,VALID,0,
2011-07-06, 01:08:04,VALID,1005.31,VALID,0,INVALID,163.777,VALID,0,VALID,23.838,VALID,31,VALID,0,
2011-07-06, 01:09:04,VALID,1005.27,VALID,0,INVALID,163.777,VALID,0,VALID,23.838,VALID,31,VALID,0,
2011-07-06, 01:10:04,VALID,1005.27,VALID,0,INVALID,163.8,VALID,0,VALID,23.838,VALID,31,VALID,0,
2011-07-06, 01:11:04,VALID,1005.2,VALID,0,INVALID,163.784,VALID,0,VALID,23.838,VALID,31,VALID,0,
2011-07-06, 01:12:04,VALID,1005.18,VALID,0,INVALID,163.784,VALID,0,VALID,23.8185,VALID,31,VALID,0,
2011-07-06, 01:13:04,VALID,1005.18,VALID,0,INVALID,163.769,VALID,0,VALID,23.838,VALID,31,VALID,0,
2011-07-06, 01:14:04,VALID,1005.19,VALID,0,INVALID,163.731,VALID,0,VALID,23.838,VALID,31,VALID,0,
2011-07-06, 01:15:04,VALID,1005.18,VALID,0,INVALID,163.769,VALID,0,VALID,23.838,VALID,31,VALID,0,
2011-07-06, 01:16:04,VALID,1005.19,VALID,0,INVALID,163.784,VALID,0,VALID,23.8185,VALID,31,VALID,0,
2011-07-06, 01:17:04,VALID,1005.19,VALID,0,INVALID,163.784,VALID,0,VALID,23.8398,VALID,31,VALID,0,
2011-07-06, 01:18:04,VALID,1005.19,VALID,0,INVALID,163.784,VALID,0,VALID,23.8398,VALID,27,VALID,0,
2011-07-06, 01:19:04,VALID,1005.19,VALID,0,INVALID,163.777,VALID,0,VALID,23.8398,VALID,13,VALID,0,
2011-07-06, 01:20:04,VALID,1005.2,VALID,0,INVALID,163.769,VALID,0,VALID,23.838,VALID,7,VALID,0,
2011-07-06, 01:21:04,VALID,1005.2,VALID,0,INVALID,163.784,VALID,0,VALID,23.8185,VALID,2,VALID,0,
2011-07-06, 01:22:04,VALID,1005.21,VALID,0,INVALID,163.792,VALID,0,VALID,23.8185,VALID,360,VALID,0,
2011-07-06, 01:23:04,VALID,1005.21,VALID,0,INVALID,163.784,VALID,0,VALID,23.8593,VALID,348,VALID,0,
2011-07-06, 01:24:04,VALID,1005.25,VALID,0,INVALID,163.777,VALID,0,VALID,23.838,VALID,346,VALID,0,
2011-07-06, 01:25:04,VALID,1005.27,VALID,0,INVALID,163.762,VALID,0,VALID,23.8787,VALID,346,VALID,0,
2011-07-06, 01:26:04,VALID,1005.26,VALID,0,INVALID,163.769,VALID,0,VALID,23.8556,VALID,349,VALID,0,
2011-07-06, 01:27:04,VALID,1005.26,VALID,0,INVALID,163.777,VALID,0,VALID,23.9177,VALID,326,VALID,0,
2011-07-06, 01:28:04,VALID,1005.24,VALID,0,INVALID,163.762,VALID,0,VALID,23.9371,VALID,321,VALID,0,
2011-07-06, 01:29:04,VALID,1005.25,VALID,0,INVALID,163.754,VALID,0,VALID,23.9353,VALID,327,VALID,0,
2011-07-06, 01:30:04,VALID,1005.24,VALID,0,INVALID,163.762,VALID,0,VALID,23.9566,VALID,358,VALID,0,
2011-07-06, 01:31:04,VALID,1005.23,VALID,0,INVALID,163.746,VALID,0,VALID,23.9566,VALID,358,VALID,0,
2011-07-06, 01:32:04,VALID,1005.17,VALID,0,INVALID,163.762,VALID,0,VALID,23.9955,VALID,353,VALID,0,
2011-07-06, 01:33:04,VALID,1005.19,VALID,0,INVALID,163.769,VALID,0,VALID,23.9937,VALID,354,VALID,0,
2011-07-06, 01:34:04,VALID,1005.15,VALID,0,INVALID,163.762,VALID,0,VALID,23.9937,VALID,336,VALID,0,
2011-07-06, 01:35:04,VALID,1005.17,VALID,0,INVALID,163.762,VALID,0,VALID,24.0345,VALID,331,VALID,0,
2011-07-06, 01:36:04,VALID,1005.15,VALID,0,INVALID,163.746,VALID,0,VALID,24.0345,VALID,338,VALID,0,
2011-07-06, 01:37:04,VALID,1005.13,VALID,0,INVALID,163.754,VALID,0,VALID,24.0345,VALID,342,VALID,0,
2011-07-06, 01:38:04,VALID,1005.15,VALID,0,INVALID,163.754,VALID,0,VALID,24.0326,VALID,348,VALID,0,
2011-07-06, 01:39:04,VALID,1005.1,VALID,0,INVALID,163.754,VALID,0,VALID,24.0132,VALID,343,VALID,0,
2011-07-06, 01:40:04,VALID,1005.13,VALID,0,INVALID,163.762,VALID,0,VALID,24.0345,VALID,354,VALID,0,
2011-07-06, 01:41:04,VALID,1005.13,VALID,0,INVALID,163.762,VALID,0,VALID,24.0132,VALID,352,VALID,0,
2011-07-06, 01:42:04,VALID,1005.14,VALID,0,INVALID,163.754,VALID,0,VALID,23.9937,VALID,353,VALID,0,
2011-07-06, 01:43:04,VALID,1005.17,VALID,0,INVALID,163.746,VALID,0,VALID,23.9937,VALID,354,VALID,0,
2011-07-06, 01:44:04,VALID,1005.18,VALID,0,INVALID,163.769,VALID,0,VALID,23.9937,VALID,356,VALID,0,
2011-07-06, 01:45:04,VALID,1005.17,VALID,0,INVALID,163.754,VALID,0.100563,VALID,24.0132,VALID,347,VALID,0,
2011-07-06, 01:46:04,VALID,1005.17,VALID,0,INVALID,163.762,VALID,0,VALID,24.0326,VALID,352,VALID,0,
2011-07-06, 01:47:04,VALID,1005.18,VALID,0,INVALID,163.754,VALID,0.100563,VALID,24.0521,VALID,336,VALID,0,
2011-07-06, 01:48:04,VALID,1005.21,VALID,0,INVALID,163.769,VALID,0,VALID,24.0716,VALID,345,VALID,0,
2011-07-06, 01:49:04,VALID,1005.21,VALID,0,INVALID,163.762,VALID,0.100563,VALID,24.091,VALID,4,VALID,0,
2011-07-06, 01:50:04,VALID,1005.24,VALID,0,INVALID,163.746,VALID,0.100563,VALID,24.091,VALID,350,VALID,0,
2011-07-06, 01:51:04,VALID,1005.24,VALID,0,INVALID,163.731,VALID,0,VALID,24.1105,VALID,341,VALID,0,
2011-07-06, 01:52:04,VALID,1005.19,VALID,0,INVALID,163.754,VALID,0,VALID,24.1105,VALID,342,VALID,0,
2011-07-06, 01:53:04,VALID,1005.2,VALID,0,INVALID,163.746,VALID,0.100563,VALID,24.1087,VALID,342,VALID,0,
2011-07-06, 01:54:04,VALID,1005.2,VALID,0,INVALID,163.701,VALID,0.100563,VALID,24.1494,VALID,350,VALID,0,
2011-07-06, 01:55:04,VALID,1005.16,VALID,0,INVALID,163.731,VALID,0.100563,VALID,24.1494,VALID,351,VALID,0,
2011-07-06, 01:56:04,VALID,1005.21,VALID,0,INVALID,163.739,VALID,0.100563,VALID,24.1884,VALID,357,VALID,0,
2011-07-06, 01:57:04,VALID,1005.19,VALID,0,INVALID,163.746,VALID,0,VALID,24.2273,VALID,355,VALID,0,
2011-07-06, 01:58:04,VALID,1005.21,VALID,0,INVALID,163.731,VALID,0,VALID,24.206,VALID,355,VALID,0,
2011-07-06, 01:59:04,VALID,1005.2,VALID,0,INVALID,163.754,VALID,0,VALID,24.2662,VALID,354,VALID,0,
2011-07-06, 02:00:04,VALID,1005.19,VALID,0,INVALID,163.716,VALID,0,VALID,24.2644,VALID,345,VALID,0,
2011-07-06, 02:01:04,VALID,1005.15,VALID,0,INVALID,163.746,VALID,0.100563,VALID,24.3033,VALID,339,VALID,0,
2011-07-06, 02:02:04,VALID,1005.15,VALID,0,INVALID,163.754,VALID,0,VALID,24.3246,VALID,348,VALID,0,
2011-07-06, 02:03:04,VALID,1005.15,VALID,0,INVALID,163.746,VALID,0.100563,VALID,24.3246,VALID,360,VALID,0,
2011-07-06, 02:04:04,VALID,1005.14,VALID,0,INVALID,163.769,VALID,0.100563,VALID,24.3052,VALID,1,VALID,0,
2011-07-06, 02:05:04,VALID,1005.18,VALID,0,INVALID,163.731,VALID,0.100563,VALID,24.2644,VALID,18,VALID,0,
2011-07-06, 02:06:04,VALID,1005.11,VALID,0,INVALID,163.723,VALID,0.100563,VALID,24.2857,VALID,357,VALID,0,
2011-07-06, 02:07:04,VALID,1005.08,VALID,0,INVALID,163.731,VALID,0.100563,VALID,24.3052,VALID,341,VALID,0,
2011-07-06, 02:08:04,VALID,1005.07,VALID,0,INVALID,163.731,VALID,0,VALID,24.3052,VALID,340,VALID,0,
2011-07-06, 02:09:04,VALID,1005.03,VALID,0,INVALID,163.731,VALID,0,VALID,24.3052,VALID,349,VALID,0,
2011-07-06, 02:10:04,VALID,1005.05,VALID,0,INVALID,163.708,VALID,0,VALID,24.307,VALID,355,VALID,0,
2011-07-06, 02:11:04,VALID,1005.03,VALID,0,INVALID,163.723,VALID,0,VALID,24.3052,VALID,352,VALID,0,
2011-07-06, 02:12:04,VALID,1005.1,VALID,0,INVALID,163.731,VALID,0,VALID,24.2839,VALID,353,VALID,0,
2011-07-06, 02:13:04,VALID,1005.11,VALID,0,INVALID,163.754,VALID,0,VALID,24.3052,VALID,349,VALID,0,
2011-07-06, 02:14:04,VALID,1005.15,VALID,0,INVALID,163.708,VALID,0.100563,VALID,24.3033,VALID,1,VALID,0,
2011-07-06, 02:15:04,VALID,1005.13,VALID,0,INVALID,163.739,VALID,0,VALID,24.3441,VALID,20,VALID,0,
2011-07-06, 02:16:04,VALID,1005.14,VALID,0,INVALID,163.716,VALID,0,VALID,24.3636,VALID,360,VALID,0,
2011-07-06, 02:17:04,VALID,1005.12,VALID,0,INVALID,163.723,VALID,0,VALID,24.4025,VALID,358,VALID,0,
2011-07-06, 02:18:04,VALID,1005.11,VALID,0,INVALID,163.708,VALID,0,VALID,24.422,VALID,2,VALID,0,
2011-07-06, 02:19:04,VALID,1005.08,VALID,0,INVALID,163.723,VALID,0,VALID,24.4414,VALID,23,VALID,0,
2011-07-06, 02:20:04,VALID,1005.06,VALID,0,INVALID,163.693,VALID,0,VALID,24.422,VALID,12,VALID,0,
2011-07-06, 02:21:04,VALID,1005.04,VALID,0,INVALID,163.716,VALID,0.100563,VALID,24.422,VALID,18,VALID,0,
2011-07-06, 02:22:04,VALID,1005.01,VALID,0,INVALID,163.731,VALID,0.100563,VALID,24.422,VALID,1,VALID,0,
2011-07-06, 02:23:04,VALID,1004.99,VALID,0,INVALID,163.731,VALID,0,VALID,24.422,VALID,360,VALID,0,
2011-07-06, 02:24:04,VALID,1004.99,VALID,0,INVALID,163.739,VALID,0,VALID,24.422,VALID,360,VALID,0,
2011-07-06, 02:25:04,VALID,1005.01,VALID,0,INVALID,163.723,VALID,0,VALID,24.422,VALID,1,VALID,0,
2011-07-06, 02:26:04,VALID,1004.95,VALID,0,INVALID,163.723,VALID,0,VALID,24.4238,VALID,344,VALID,0,
2011-07-06, 02:27:04,VALID,1004.96,VALID,0,INVALID,163.739,VALID,0,VALID,24.4025,VALID,11,VALID,0,
2011-07-06, 02:28:04,VALID,1004.94,VALID,0,INVALID,163.762,VALID,0,VALID,24.383,VALID,11,VALID,0,
2011-07-06, 02:29:04,VALID,1004.94,VALID,0,INVALID,163.746,VALID,0,VALID,24.383,VALID,2,VALID,0,
2011-07-06, 02:30:04,VALID,1004.95,VALID,0,INVALID,163.746,VALID,0,VALID,24.3636,VALID,13,VALID,0,
2011-07-06, 02:31:04,VALID,1004.95,VALID,0,INVALID,163.746,VALID,0.100563,VALID,24.3441,VALID,354,VALID,0,
2011-07-06, 02:32:04,VALID,1004.92,VALID,0,INVALID,163.746,VALID,0,VALID,24.3441,VALID,15,VALID,0,
2011-07-06, 02:33:04,VALID,1005.04,VALID,0,INVALID,163.762,VALID,0,VALID,24.3636,VALID,18,VALID,0,
2011-07-06, 02:34:04,VALID,1005.06,VALID,0,INVALID,163.723,VALID,0,VALID,24.4043,VALID,15,VALID,0,
2011-07-06, 02:35:04,VALID,1005.05,VALID,0,INVALID,163.731,VALID,0.100563,VALID,24.4025,VALID,15,VALID,0,
2011-07-06, 02:36:04,VALID,1005.05,VALID,0,INVALID,163.731,VALID,0,VALID,24.383,VALID,18,VALID,0,
2011-07-06, 02:37:04,VALID,1005.04,VALID,0,INVALID,163.723,VALID,0,VALID,24.3441,VALID,11,VALID,0,
2011-07-06, 02:38:04,VALID,1005,VALID,0,INVALID,163.746,VALID,0,VALID,24.3246,VALID,16,VALID,0,
2011-07-06, 02:39:04,VALID,1004.98,VALID,0,INVALID,163.739,VALID,0,VALID,24.2857,VALID,6,VALID,0,
2011-07-06, 02:40:04,VALID,1004.97,VALID,0,INVALID,163.739,VALID,0,VALID,24.2875,VALID,12,VALID,0,
2011-07-06, 02:41:04,VALID,1005.01,VALID,0,INVALID,163.739,VALID,0,VALID,24.2681,VALID,17,VALID,0,
2011-07-06, 02:42:04,VALID,1005.04,VALID,0,INVALID,163.754,VALID,0.100563,VALID,24.2273,VALID,24,VALID,0,
2011-07-06, 02:43:04,VALID,1005.04,VALID,0,INVALID,163.754,VALID,0,VALID,24.1689,VALID,355,VALID,0,
2011-07-06, 02:44:04,VALID,1005.05,VALID,0,INVALID,163.777,VALID,0,VALID,24.1689,VALID,10,VALID,0,
2011-07-06, 02:45:04,VALID,1005.07,VALID,0,INVALID,163.777,VALID,0,VALID,24.1494,VALID,29,VALID,0,
2011-07-06, 02:46:04,VALID,1005.07,VALID,0,INVALID,163.746,VALID,0,VALID,24.1494,VALID,13,VALID,0,
2011-07-06, 02:47:04,VALID,1005.07,VALID,0,INVALID,163.777,VALID,0,VALID,24.1318,VALID,356,VALID,0,
2011-07-06, 02:48:04,VALID,1005.05,VALID,0,INVALID,163.769,VALID,0.100563,VALID,24.0716,VALID,23,VALID,0,
2011-07-06, 02:49:04,VALID,1005.03,VALID,0,INVALID,163.754,VALID,0,VALID,24.0539,VALID,23,VALID,0,
2011-07-06, 02:50:04,VALID,1005.05,VALID,0,INVALID,163.769,VALID,0,VALID,24.0132,VALID,21,VALID,0,
2011-07-06, 02:51:04,VALID,1005.05,VALID,0,INVALID,163.754,VALID,0,VALID,23.9937,VALID,14,VALID,0,
2011-07-06, 02:52:04,VALID,1005.05,VALID,0,INVALID,163.746,VALID,0,VALID,23.9742,VALID,10,VALID,0,
2011-07-06, 02:53:04,VALID,1005.06,VALID,0,INVALID,163.777,VALID,0,VALID,23.9742,VALID,21,VALID,0,
2011-07-06, 02:54:04,VALID,1005.05,VALID,0,INVALID,163.769,VALID,0,VALID,23.9937,VALID,44,VALID,0,
2011-07-06, 02:55:04,VALID,1005.05,VALID,0,INVALID,163.746,VALID,0,VALID,23.9955,VALID,12,VALID,0,
2011-07-06, 02:56:04,VALID,1005.08,VALID,0,INVALID,163.777,VALID,0,VALID,23.9955,VALID,12,VALID,0,
2011-07-06, 02:57:04,VALID,1005.06,VALID,0,INVALID,163.754,VALID,0,VALID,23.9742,VALID,27,VALID,0,
2011-07-06, 02:58:04,VALID,1005.06,VALID,0,INVALID,163.769,VALID,0,VALID,23.9548,VALID,30,VALID,0,
2011-07-06, 02:59:04,VALID,1005.05,VALID,0,INVALID,163.762,VALID,0,VALID,23.9566,VALID,33,VALID,0,
2011-07-06, 03:00:04,VALID,1005.07,VALID,0,INVALID,163.754,VALID,0,VALID,23.9371,VALID,22,VALID,0,
2011-07-06, 03:01:04,VALID,1005.05,VALID,0,INVALID,163.723,VALID,0,VALID,23.8964,VALID,32,VALID,0,
2011-07-06, 03:02:04,VALID,1005.07,VALID,0.5,INVALID,163.777,VALID,0,VALID,23.8769,VALID,29,VALID,0,
2011-07-06, 03:03:04,VALID,1005.06,VALID,0,INVALID,163.792,VALID,0,VALID,23.8787,VALID,40,VALID,0,
2011-07-06, 03:04:04,VALID,1005.04,VALID,0,INVALID,163.792,VALID,0,VALID,23.838,VALID,18,VALID,0,
2011-07-06, 03:05:04,VALID,1005.05,VALID,0,INVALID,163.762,VALID,0,VALID,23.8398,VALID,31,VALID,0,
2011-07-06, 03:06:04,VALID,1005.04,VALID,0,INVALID,163.769,VALID,0,VALID,23.7991,VALID,55,VALID,0,
2011-07-06, 03:07:04,VALID,1005.01,VALID,0,INVALID,163.784,VALID,0,VALID,23.7796,VALID,29,VALID,0,
2011-07-06, 03:08:04,VALID,1004.97,VALID,0,INVALID,163.8,VALID,0,VALID,23.7814,VALID,30,VALID,0,
2011-07-06, 03:09:04,VALID,1004.95,VALID,0,INVALID,163.784,VALID,0,VALID,23.7407,VALID,37,VALID,0,
2011-07-06, 03:10:04,VALID,1004.95,VALID,0.5,INVALID,163.762,VALID,0,VALID,23.7017,VALID,40,VALID,0,
2011-07-06, 03:11:04,VALID,1004.93,VALID,0,INVALID,163.784,VALID,0,VALID,23.6628,VALID,73,VALID,0,
2011-07-06, 03:12:04,VALID,1004.9,VALID,0,INVALID,163.792,VALID,0,VALID,23.6628,VALID,95,VALID,0,
2011-07-06, 03:13:04,VALID,1004.9,VALID,0,INVALID,163.792,VALID,0,VALID,23.6646,VALID,80,VALID,0,
2011-07-06, 03:14:04,VALID,1004.88,VALID,0,INVALID,163.769,VALID,0,VALID,23.6044,VALID,64,VALID,0,
2011-07-06, 03:15:04,VALID,1004.91,VALID,0,INVALID,163.777,VALID,0.100563,VALID,23.5655,VALID,61,VALID,0,
2011-07-06, 03:16:04,VALID,1004.9,VALID,0,INVALID,163.777,VALID,0,VALID,23.5673,VALID,55,VALID,0,
2011-07-06, 03:17:04,VALID,1004.95,VALID,0,INVALID,163.792,VALID,0,VALID,23.5284,VALID,49,VALID,0,
2011-07-06, 03:18:04,VALID,1004.91,VALID,0,INVALID,163.815,VALID,0,VALID,23.4894,VALID,27,VALID,0,
2011-07-06, 03:19:04,VALID,1004.87,VALID,0,INVALID,163.823,VALID,0,VALID,23.4487,VALID,27,VALID,0,
2011-07-06, 03:20:04,VALID,1004.88,VALID,0.5,INVALID,163.807,VALID,0,VALID,23.4098,VALID,34,VALID,0,
2011-07-06, 03:21:04,VALID,1004.83,VALID,0,INVALID,163.838,VALID,0,VALID,23.3904,VALID,14,VALID,0,
2011-07-06, 03:22:04,VALID,1004.83,VALID,0,INVALID,163.792,VALID,0,VALID,23.3921,VALID,15,VALID,0,
2011-07-06, 03:23:04,VALID,1004.82,VALID,0,INVALID,163.823,VALID,0,VALID,23.332,VALID,16,VALID,0,
2011-07-06, 03:24:04,VALID,1004.82,VALID,0,INVALID,163.83,VALID,0,VALID,23.3125,VALID,32,VALID,0,
2011-07-06, 03:25:04,VALID,1004.83,VALID,0.5,INVALID,163.784,VALID,0,VALID,23.3125,VALID,25,VALID,0,
2011-07-06, 03:26:04,VALID,1004.84,VALID,0,INVALID,163.823,VALID,0,VALID,23.2931,VALID,24,VALID,0,
2011-07-06, 03:27:04,VALID,1004.84,VALID,0,INVALID,163.8,VALID,0,VALID,23.2718,VALID,23,VALID,0,
2011-07-06, 03:28:04,VALID,1004.85,VALID,0,INVALID,163.815,VALID,0,VALID,23.2736,VALID,25,VALID,0,
2011-07-06, 03:29:04,VALID,1004.82,VALID,0,INVALID,163.823,VALID,0,VALID,23.2347,VALID,29,VALID,0,
2011-07-06, 03:30:04,VALID,1004.82,VALID,0,INVALID,163.815,VALID,0.100563,VALID,23.1957,VALID,35,VALID,0,
2011-07-06, 03:31:04,VALID,1004.83,VALID,0,INVALID,163.815,VALID,0,VALID,23.1551,VALID,57,VALID,0,
2011-07-06, 03:32:04,VALID,1004.84,VALID,0,INVALID,163.815,VALID,0,VALID,23.1374,VALID,87,VALID,0,
2011-07-06, 03:33:04,VALID,1004.81,VALID,0,INVALID,163.853,VALID,0,VALID,23.1179,VALID,60,VALID,0,
2011-07-06, 03:34:04,VALID,1004.82,VALID,0,INVALID,163.861,VALID,0,VALID,23.1179,VALID,28,VALID,0,
2011-07-06, 03:35:04,VALID,1004.81,VALID,0,INVALID,163.8,VALID,0,VALID,23.1197,VALID,47,VALID,0,
2011-07-06, 03:36:04,VALID,1004.76,VALID,0,INVALID,163.815,VALID,0,VALID,23.0984,VALID,17,VALID,0,
2011-07-06, 03:37:04,VALID,1004.74,VALID,0,INVALID,163.845,VALID,0,VALID,23.079,VALID,34,VALID,0,
2011-07-06, 03:38:04,VALID,1004.74,VALID,0,INVALID,163.83,VALID,0,VALID,23.079,VALID,71,VALID,0,
2011-07-06, 03:39:04,VALID,1004.73,VALID,0,INVALID,163.83,VALID,0.100563,VALID,23.079,VALID,77,VALID,0,
2011-07-06, 03:40:04,VALID,1004.73,VALID,0,INVALID,163.83,VALID,0,VALID,23.0595,VALID,89,VALID,0,
2011-07-06, 03:41:04,VALID,1004.67,VALID,0,INVALID,163.838,VALID,0,VALID,23.0595,VALID,66,VALID,0,
2011-07-06, 03:42:04,VALID,1004.66,VALID,0,INVALID,163.83,VALID,0,VALID,23.0401,VALID,73,VALID,0,
2011-07-06, 03:43:04,VALID,1004.66,VALID,0,INVALID,163.815,VALID,0.100563,VALID,23.0401,VALID,54,VALID,0,
2011-07-06, 03:44:04,VALID,1004.66,VALID,0,INVALID,163.815,VALID,0,VALID,23.0206,VALID,30,VALID,0,
2011-07-06, 03:45:04,VALID,1004.66,VALID,0,INVALID,163.83,VALID,0,VALID,23.0029,VALID,65,VALID,0,
2011-07-06, 03:46:04,VALID,1004.63,VALID,0.5,INVALID,163.83,VALID,0,VALID,22.964,VALID,46,VALID,0,
2011-07-06, 03:47:04,VALID,1004.67,VALID,0,INVALID,163.845,VALID,0,VALID,22.9834,VALID,52,VALID,0,
2011-07-06, 03:48:04,VALID,1004.65,VALID,0,INVALID,163.823,VALID,0,VALID,22.964,VALID,35,VALID,0,
2011-07-06, 03:49:04,VALID,1004.64,VALID,0,INVALID,163.838,VALID,0,VALID,23.0046,VALID,44,VALID,0,
2011-07-06, 03:50:04,VALID,1004.65,VALID,0,INVALID,163.853,VALID,0,VALID,22.9834,VALID,32,VALID,0,
2011-07-06, 03:51:04,VALID,1004.61,VALID,0,INVALID,163.83,VALID,0,VALID,22.9834,VALID,84,VALID,0,
2011-07-06, 03:52:04,VALID,1004.58,VALID,0,INVALID,163.884,VALID,0,VALID,23.0029,VALID,93,VALID,0,
2011-07-06, 03:53:04,VALID,1004.55,VALID,0,INVALID,163.838,VALID,0,VALID,23.0029,VALID,74,VALID,0,
2011-07-06, 03:54:04,VALID,1004.56,VALID,0,INVALID,163.838,VALID,0,VALID,23.0012,VALID,102,VALID,0,
2011-07-06, 03:55:04,VALID,1004.54,VALID,0,INVALID,163.838,VALID,0,VALID,23.0029,VALID,102,VALID,0,